Redmond, OR

2:26 PM PST on November 17, 2019 (GMT -0800)
Roberts Field Airport

Weather History for KRDM - September, 2019

Change the Weather History Date:

Sunday, September 22, 2019

  Actual Average Record
Temperature  
Mean Temperature 55 °F 55 °F  
Max Temperature 65 °F 74 °F 93 °F (1999)
Min Temperature 44 °F 37 °F 19 °F (1961)
Degree Days  
Heating Degree Days 10 10  
Month to date heating degree days 110 160  
Since 1 July heating degree days 157 309  
Cooling Degree Days 0 0  
Month to date cooling degree days 37 14  
Year to date cooling degree days 293 220  
Growing Degree Days 4 (Base 50)    
Moisture  
Dew Point 46 °F    
Average Humidity 71    
Maximum Humidity 86    
Minimum Humidity 56    
Precipitation  
Precipitation 0.10 in 0.02 in 0.19 in (1973)
Month to date precipitation 1.31 0.30  
Year to date precipitation 8.77 6.03  
Sea Level Pressure  
Sea Level Pressure 29.94 in    
Wind  
Wind Speed 4 mph (SE)    
Max Wind Speed 17 mph    
Max Gust Speed 23 mph    
Visibility 10 miles    
Events Rain    
T = Trace of Precipitation, MM = Missing Value Source: NWS Daily Summary

Daily Weather History Graph

Daily Weather History Graph

Search for Another Location

Airport or City:

Astronomy

Sep. 22, 2019 Rise Set
Actual Time 6:51 AM PDT 7:02 PM PDT
Civil Twilight 6:22 AM PDT 7:31 PM PDT
Nautical Twilight 5:48 AM PDT 8:05 PM PDT
Astronomical Twilight 5:13 AM PDT 8:39 PM PDT
Moon No Moon Rise 3:17 PM PDT (9/22)
Length of Visible Light 13h 08m
Length of Day
12h 10m
Last Quarter, 43% of the Moon is Illuminated
Sep 22
Last Quarter
Sep 28
New
Oct 5
First Quarter
Oct 13
Full
Oct 21
Last Quarter

Hourly Weather History & Observations

Time (PDT) Temp. Windchill Dew Point Humidity Pressure Visibility Wind Dir Wind Speed Gust Speed Precip Events Conditions
12:56 AM 48.9 °F - 42.1 °F 77% 29.97 in 10.0 mi SSE 5.8 mph - N/A   Clear
1:56 AM 50.0 °F - 42.1 °F 74% 29.96 in 10.0 mi SE 4.6 mph - N/A   Clear
2:56 AM 45.0 °F 43.5 °F 39.9 °F 82% 29.95 in 10.0 mi East 3.5 mph - N/A   Clear
3:56 AM 46.9 °F - 39.9 °F 77% 29.93 in 10.0 mi South 8.1 mph - N/A   Clear
4:56 AM 48.0 °F - 41.0 °F 77% 29.91 in 10.0 mi South 8.1 mph - N/A   Clear
5:56 AM 46.9 °F - 41.0 °F 80% 29.91 in 10.0 mi East 3.5 mph - N/A   Clear
6:56 AM 46.9 °F - 39.9 °F 77% 29.91 in 10.0 mi East 4.6 mph - N/A   Clear
7:56 AM 50.0 °F - 42.1 °F 74% 29.92 in 10.0 mi Variable 3.5 mph - N/A   Clear
8:56 AM 57.9 °F - 44.1 °F 60% 29.92 in 10.0 mi Calm Calm - N/A   Clear
9:56 AM 62.1 °F - 46.0 °F 56% 29.92 in 10.0 mi SE 4.6 mph - N/A   Clear
10:56 AM 63.0 °F - 46.0 °F 54% 29.93 in 10.0 mi Calm Calm - N/A   Mostly Cloudy
11:56 AM 59.0 °F - 52.0 °F 78% 29.94 in 10.0 mi SSE 6.9 mph - 0.01 in Rain Light Rain
12:56 PM 59.0 °F - 48.9 °F 69% 29.93 in 9.0 mi SSW 4.6 mph - 0.02 in Rain Light Rain
1:56 PM 57.9 °F - 52.0 °F 81% 29.92 in 9.0 mi ESE 5.8 mph - 0.03 in Rain Light Rain
2:56 PM 62.1 °F - 54.0 °F 75% 29.90 in 10.0 mi East 6.9 mph - 0.01 in   Overcast
3:56 PM 64.0 °F - 50.0 °F 60% 29.89 in 10.0 mi South 9.2 mph - 0.01 in   Overcast
4:56 PM 61.0 °F - 53.1 °F 75% 29.91 in 10.0 mi NNE 12.7 mph - N/A   Overcast
5:56 PM 60.1 °F - 51.1 °F 72% 29.92 in 10.0 mi NNE 8.1 mph - N/A   Overcast
6:56 PM 57.0 °F - 51.1 °F 81% 29.95 in 10.0 mi Calm Calm - 0.02 in   Mostly Cloudy
7:56 PM 55.9 °F - 51.1 °F 84% 29.96 in 10.0 mi Calm Calm - 0.00 in   Mostly Cloudy
8:56 PM 50.0 °F - 46.9 °F 89% 29.99 in 10.0 mi Calm Calm - N/A   Mostly Cloudy
9:56 PM 52.0 °F - 46.0 °F 80% 29.99 in 10.0 mi NNW 5.8 mph - N/A   Partly Cloudy
10:56 PM 48.9 °F - 45.0 °F 86% 30.02 in 10.0 mi Calm Calm - N/A   Mostly Cloudy
11:56 PM 48.0 °F - 44.1 °F 86% 30.04 in 10.0 mi SSW 3.5 mph - N/A   Clear